Regional Weather Roundup
Issued by NWS Albany, NY

Current Version | Previous Version | Text Only | Print | Product List | Glossary On
Versions: 1 2 3 4 5 6 7 8 9 10 11 12 13 14 15 16 17 18 19 20 21 22 23 24 25 26 27 28
000 ASUS41 KALY 261910 RWRALY NEW YORK STATE HOURLY WEATHER ROUNDUP NATIONAL WEATHER SERVICE ALBANY NY 300 PM EDT THU APR 26 2018 NOTE: "FAIR" INDICATES FEW OR NO CLOUDS BELOW 12,000 FEET WITH NO SIGNIFICANT WEATHER AND/OR NO OBSTRUCTIONS TO VISIBILITY. NYZ032-033-038>043-046>054-057>066-NYZ062>081-082-084-262000- EAST CITY SKY/WX TMP DP RH WIND PRES REMARKS ALBANY CLOUDY 52 40 63 W13 29.76R GLENS FALLS CLOUDY 53 40 61 SW12G21 29.70R POUGHKEEPSIE PTSUNNY 62 40 44 SW10G21 29.72S MONTGOMERY PTSUNNY 61 41 47 NW13G18 29.73S WHITE PLAINS FAIR 63 41 44 NW14 29.74R ISLIP PTSUNNY 66 40 38 W13G24 29.73R NEW YORK CITY FAIR 67 38 34 W13 29.75R CENTRAL PARK FAIR 67 39 35 W9G16 29.78R $$ NYZ005>009-017-018-044>046-055-056-262000- CENTRAL CITY SKY/WX TMP DP RH WIND PRES REMARKS FULTON CLOUDY 46 37 71 W17G28 29.82S SYRACUSE CLOUDY 44 43 96 W10 29.82R ROME LGT RAIN 43 41 93 NW18 29.82R FOG ELMIRA FAIR 60 41 49 NW10G20 29.82R BINGHAMTON FAIR 53 39 59 W16G23 29.79R MONTICELLO PTSUNNY 56 40 55 NW16G24 29.77R $$ NYZ026>034-041>043-087-262000- NORTH CITY SKY/WX TMP DP RH WIND PRES REMARKS WATERTOWN CLOUDY 41 40 96 SW14 29.78R FORT DRUM NOT AVBL OGDENSBURG PTSUNNY 48 46 90 W9 29.72R MASSENA CLOUDY 48 46 93 SW9 29.70R SARANAC LAKE CLOUDY 42 39 89 SW12 29.67R PLATTSBURGH PTSUNNY 54 41 61 VRB7G17 29.63R $$ NYZ001>004-010>016-019>021-085-262000- WEST CITY SKY/WX TMP DP RH WIND PRES REMARKS NIAGARA FALLS FAIR 53 39 59 SW18 29.86S BUFFALO FAIR 47 35 63 SW18G26 29.88S DUNKIRK FAIR 50 33 52 W16G22 29.92S JAMESTOWN FAIR 50 32 50 VRB6G16 29.90R WELLSVILLE FAIR 56 34 43 W13G22 29.85S ROCHESTER FAIR 55 40 56 W15G23 29.84S PENN YAN FAIR 55 38 52 W10G18 29.83R $$ KEY WCI = WIND CHILL INDEX VSB = VISIBILITY HX = HEAT INDEX $$

USA.gov is the U.S. government's official web portal to all federal, state and local government web resources and services.